Change the Weather History Date:

Saturday, June 7, 2014

  Actual Average Record
Temperature  
Mean Temperature 66 °F -  
Max Temperature 82 °F 69 °F 93 °F (1999)
Min Temperature 51 °F 46 °F 33 °F (2007)
Cooling Degree Days 2    
Growing Degree Days 16 (Base 50)    
Moisture  
Dew Point 52 °F    
Average Humidity 59    
Maximum Humidity 88    
Minimum Humidity 35    
Precipitation  
Precipitation 0.00 in - - ()
Sea Level Pressure  
Sea Level Pressure 29.87 in    
Wind  
Wind Speed 6 mph (WNW)    
Max Wind Speed 13 mph    
Max Gust Speed 16 mph    
Visibility 10 miles    
Events      
Averages and records for this station are not official NWS values.
T = Trace of Precipitation, MM = Missing Value Source: NWS Daily Summary

Daily Weather History Graph

Daily Weather History Graph

Search for Another Location

Airport or City:

Trip Planner

Search our weather history database for the weather conditions in past years. The results will help you decide how hot, cold, wet, or windy it might be!

Date:

Astronomy

Jun. 07, 2014 Rise Set
Actual Time 5:02 AM EDT 8:20 PM EDT
Civil Twilight 4:27 AM EDT 8:56 PM EDT
Nautical Twilight 3:41 AM EDT 9:42 PM EDT
Astronomical Twilight 2:45 AM EDT 10:38 PM EDT
Moon 2:26 PM EDT (6/7) 1:32 AM EDT (6/7)
Length of Visible Light 16h 28m
Length of Day
15h 18m
Waxing Gibbous, 67% of the Moon is Illuminated
Jun 7
Waxing Gibbous
Jun 13
Full
Jun 19
Last Quarter
Jun 27
New
Jul 5
First Quarter

Hourly Weather History & Observations

Time (EDT) Temp. Heat Index Dew Point Humidity Pressure Visibility Wind Dir Wind Speed Gust Speed Precip Events Conditions
12:15 AM 60.8 °F - 50.0 °F 68% 29.85 in 10.0 mi WNW 8.1 mph - N/A   Clear
12:35 AM 60.8 °F - 50.0 °F 68% 29.85 in 10.0 mi West 6.9 mph - N/A   Clear
12:55 AM 59.0 °F - 50.0 °F 72% 29.85 in 10.0 mi West 8.1 mph - N/A   Clear
1:15 AM 59.0 °F - 50.0 °F 72% 29.84 in 10.0 mi West 6.9 mph - N/A   Clear
1:35 AM 57.2 °F - 50.0 °F 77% 29.84 in 10.0 mi WNW 5.8 mph - N/A   Scattered Clouds
1:55 AM 57.2 °F - 50.0 °F 77% 29.85 in 10.0 mi West 4.6 mph - N/A   Partly Cloudy
2:15 AM 53.6 °F - 48.2 °F 82% 29.85 in 10.0 mi West 5.8 mph - N/A   Clear
2:35 AM 55.4 °F - 50.0 °F 82% 29.85 in 10.0 mi West 6.9 mph - N/A   Clear
2:55 AM 55.4 °F - 48.2 °F 77% 29.86 in 10.0 mi Calm Calm - N/A   Clear
3:15 AM 51.8 °F - 46.4 °F 82% 29.86 in 10.0 mi West 5.8 mph - N/A   Clear
3:35 AM 57.2 °F - 51.8 °F 82% 29.86 in 10.0 mi West 6.9 mph - N/A   Clear
3:55 AM 57.2 °F - 50.0 °F 77% 29.86 in 10.0 mi West 4.6 mph - N/A   Clear
4:15 AM 57.2 °F - 50.0 °F 77% 29.86 in 10.0 mi West 6.9 mph - N/A   Clear
4:35 AM 59.0 °F - 51.8 °F 77% 29.86 in 10.0 mi West 8.1 mph - N/A   Clear
4:55 AM 59.0 °F - 51.8 °F 77% 29.86 in 10.0 mi West 6.9 mph - N/A   Clear
5:15 AM 59.0 °F - 50.0 °F 72% 29.87 in 10.0 mi West 6.9 mph - N/A   Clear
5:35 AM 59.0 °F - 51.8 °F 77% 29.87 in 10.0 mi West 4.6 mph - N/A   Clear
5:55 AM 59.0 °F - 51.8 °F 77% 29.88 in 10.0 mi West 5.8 mph - N/A   Clear
6:15 AM 60.8 °F - 51.8 °F 72% 29.88 in 10.0 mi WNW 6.9 mph - N/A   Clear
6:35 AM 60.8 °F - 51.8 °F 72% 29.88 in 10.0 mi West 8.1 mph - N/A   Clear
6:55 AM 62.6 °F - 51.8 °F 68% 29.88 in 10.0 mi West 8.1 mph - N/A   Clear
7:15 AM 64.4 °F - 53.6 °F 68% 29.89 in 10.0 mi WNW 6.9 mph - N/A   Clear
7:35 AM 66.2 °F - 53.6 °F 64% 29.89 in 10.0 mi WNW 6.9 mph - N/A   Clear
8:15 AM 69.8 °F - 53.6 °F 56% 29.89 in 10.0 mi WNW 9.2 mph - N/A   Clear
9:15 AM 71.6 °F - 53.6 °F 53% 29.90 in 10.0 mi NW 12.7 mph 16.1 mph N/A   Clear
9:35 AM 73.4 °F - 53.6 °F 50% 29.90 in 10.0 mi NNW 8.1 mph - N/A   Clear
9:55 AM 75.2 °F - 53.6 °F 47% 29.90 in 10.0 mi NNW 9.2 mph - N/A   Clear
10:15 AM 75.2 °F - 53.6 °F 47% 29.90 in 10.0 mi WNW 10.4 mph - N/A   Clear
10:35 AM 75.2 °F - 53.6 °F 47% 29.90 in 10.0 mi WNW 9.2 mph - N/A   Clear
10:55 AM 77.0 °F - 53.6 °F 44% 29.90 in 10.0 mi North 9.2 mph - N/A   Clear
11:15 AM 78.8 °F - 53.6 °F 42% 29.90 in 10.0 mi NW 8.1 mph - N/A   Clear
11:35 AM 78.8 °F - 53.6 °F 42% 29.90 in 10.0 mi WNW 9.2 mph - N/A   Clear
11:55 AM 78.8 °F - 53.6 °F 42% 29.90 in 10.0 mi NNW 5.8 mph - N/A   Scattered Clouds
12:15 PM 80.6 °F - 51.8 °F 37% 29.89 in 10.0 mi NW 5.8 mph - N/A   Partly Cloudy
12:35 PM 78.8 °F - 51.8 °F 39% 29.89 in 10.0 mi North 3.5 mph - N/A   Mostly Cloudy
12:55 PM 78.8 °F - 51.8 °F 39% 29.89 in 10.0 mi NNW 4.6 mph - N/A   Overcast
1:15 PM 78.8 °F - 51.8 °F 39% 29.88 in 10.0 mi West 5.8 mph - N/A   Mostly Cloudy
1:35 PM 78.8 °F - 51.8 °F 39% 29.88 in 10.0 mi North 6.9 mph - N/A   Mostly Cloudy
1:55 PM 78.8 °F - 51.8 °F 39% 29.88 in 10.0 mi NE 4.6 mph - N/A   Mostly Cloudy
2:15 PM 78.8 °F - 51.8 °F 39% 29.88 in 10.0 mi ESE 3.5 mph - N/A   Mostly Cloudy
2:35 PM 78.8 °F - 51.8 °F 39% 29.88 in 10.0 mi NNW 4.6 mph - N/A   Mostly Cloudy
2:55 PM 78.8 °F - 53.6 °F 42% 29.88 in 10.0 mi NE 6.9 mph - N/A   Overcast
3:15 PM 78.8 °F - 51.8 °F 39% 29.88 in 10.0 mi Calm Calm - N/A   Scattered Clouds
3:35 PM 80.6 °F 80.3 °F 53.6 °F 39% 29.87 in 10.0 mi Calm Calm - N/A   Partly Cloudy
3:55 PM 80.6 °F - 51.8 °F 37% 29.87 in 10.0 mi North 8.1 mph - N/A   Partly Cloudy
4:15 PM 80.6 °F - 51.8 °F 37% 29.86 in 10.0 mi NNW 4.6 mph - N/A   Clear
4:35 PM 82.4 °F 81.4 °F 53.6 °F 37% 29.86 in 10.0 mi WNW 4.6 mph - N/A   Partly Cloudy
4:55 PM 82.4 °F - 51.8 °F 35% 29.86 in 10.0 mi West 8.1 mph - N/A   Partly Cloudy
5:15 PM 80.6 °F - 51.8 °F 37% 29.85 in 10.0 mi WNW 6.9 mph - N/A   Partly Cloudy
5:35 PM 82.4 °F - 51.8 °F 35% 29.84 in 10.0 mi NNW 4.6 mph - N/A   Partly Cloudy
5:55 PM 80.6 °F - 51.8 °F 37% 29.85 in 10.0 mi WNW 6.9 mph - N/A   Clear
6:15 PM 80.6 °F - 51.8 °F 37% 29.84 in 10.0 mi West 6.9 mph - N/A   Clear
6:35 PM 80.6 °F - 51.8 °F 37% 29.84 in 10.0 mi West 5.8 mph - N/A   Clear
6:55 PM 80.6 °F - 51.8 °F 37% 29.85 in 10.0 mi West 4.6 mph - N/A   Clear
7:15 PM 80.6 °F - 51.8 °F 37% 29.85 in 10.0 mi NNW 4.6 mph - N/A   Clear
7:35 PM 78.8 °F - 51.8 °F 39% 29.86 in 10.0 mi NW 3.5 mph - N/A   Clear
7:55 PM 73.4 °F - 59.0 °F 61% 29.86 in 10.0 mi Calm Calm - N/A   Clear
8:15 PM 68.0 °F - 57.2 °F 68% 29.86 in 10.0 mi WSW 4.6 mph - N/A   Clear
8:35 PM 66.2 °F - 57.2 °F 73% 29.87 in 10.0 mi Calm Calm - N/A   Clear
8:55 PM 64.4 °F - 55.4 °F 73% 29.87 in 10.0 mi Calm Calm - N/A   Clear
9:15 PM 62.6 °F - 55.4 °F 77% 29.88 in 10.0 mi Calm Calm - N/A   Clear
9:35 PM 60.8 °F - 55.4 °F 82% 29.89 in 10.0 mi Calm Calm - N/A   Clear
9:55 PM 59.0 °F - 55.4 °F 88% 29.89 in 10.0 mi Calm Calm - N/A   Clear
10:15 PM 59.0 °F - 53.6 °F 82% 29.89 in 10.0 mi WSW 3.5 mph - N/A   Clear
10:35 PM 57.2 °F - 53.6 °F 88% 29.90 in 10.0 mi SW 4.6 mph - N/A   Clear
10:55 PM 57.2 °F - 53.6 °F 88% 29.90 in 10.0 mi West 3.5 mph - N/A   Clear
11:15 PM 59.0 °F - 53.6 °F 82% 29.91 in 10.0 mi West 3.5 mph - N/A   Clear
11:35 PM 57.2 °F - 53.6 °F 88% 29.92 in 10.0 mi WNW 4.6 mph - N/A   Clear
11:55 PM 60.8 °F - 53.6 °F 77% 29.92 in 10.0 mi WNW 3.5 mph - N/A   Clear